SXS1XE LTAI-LTBJ

Flight info

Callsign SXS1XE
Flight time 0h 51m
Altitude 32000
Route EVBOL UT489 KAVAK UT283 OKESA
Aircraft B738/M-SDE2E3FGHIRWXY/LB1

Departure

Time 2026-05-06 11:32
Airport Antalya International Airport (LTAI)

Arrival

Time 2026-05-06 12:23
Airport Adnan Menderes International Airport (LTBJ)
Time Latitude Longitude Altitude Speed Heading
2026-05-06 11:10 36.89708 30.80223 191 ft 0 kts 317°
2026-05-06 11:20 36.89705 30.80227 205 ft 2 kts 317°
2026-05-06 11:20 36.89691 30.80244 194 ft 3 kts 315°
2026-05-06 11:21 36.89677 30.80262 202 ft 3 kts 314°
2026-05-06 11:21 36.89663 30.80279 199 ft 3 kts 317°
2026-05-06 11:21 36.89647 30.80294 191 ft 3 kts 337°
2026-05-06 11:21 36.89642 30.80297 191 ft 3 kts 344°
2026-05-06 11:22 36.89629 30.80301 196 ft 3 kts 359°
2026-05-06 11:22 36.89610 30.80299 203 ft 2 kts 11°
2026-05-06 11:22 36.89605 30.80298 204 ft 1 kts 11°
2026-05-06 11:24 36.89607 30.80300 202 ft 1 kts 30°
2026-05-06 11:24 36.89609 30.80313 205 ft 2 kts 110°
2026-05-06 11:25 36.89598 30.80332 191 ft 3 kts 123°
2026-05-06 11:25 36.89585 30.80365 199 ft 5 kts 110°
2026-05-06 11:25 36.89581 30.80410 191 ft 6 kts 95°
2026-05-06 11:25 36.89576 30.80476 196 ft 10 kts 96°
2026-05-06 11:26 36.89565 30.80582 191 ft 14 kts 97°
2026-05-06 11:26 36.89589 30.80692 194 ft 14 kts 24°
2026-05-06 11:26 36.89685 30.80711 194 ft 14 kts
2026-05-06 11:26 36.89777 30.80722 191 ft 13 kts
2026-05-06 11:27 36.89866 30.80733 200 ft 13 kts
2026-05-06 11:27 36.89961 30.80746 191 ft 14 kts
2026-05-06 11:27 36.90058 30.80759 200 ft 14 kts
2026-05-06 11:27 36.90150 30.80771 194 ft 13 kts
2026-05-06 11:28 36.90238 30.80782 192 ft 13 kts
2026-05-06 11:28 36.90325 30.80793 195 ft 12 kts
2026-05-06 11:28 36.90409 30.80806 193 ft 12 kts
2026-05-06 11:28 36.90502 30.80821 194 ft 15 kts
2026-05-06 11:29 36.90618 30.80836 195 ft 18 kts
2026-05-06 11:29 36.90755 30.80854 190 ft 21 kts
2026-05-06 11:29 36.90910 30.80877 193 ft 23 kts
2026-05-06 11:29 36.91054 30.80895 202 ft 14 kts
2026-05-06 11:30 36.91134 30.80948 193 ft 14 kts 68°
2026-05-06 11:30 36.91131 30.81062 203 ft 13 kts 100°
2026-05-06 11:30 36.91075 30.81134 193 ft 13 kts 180°
2026-05-06 11:30 36.90988 30.81121 201 ft 12 kts 186°
2026-05-06 11:31 36.90899 30.81110 195 ft 14 kts 185°
2026-05-06 11:31 36.90688 30.81081 192 ft 61 kts 186°
2026-05-06 11:31 36.90038 30.80992 202 ft 124 kts 187°
2026-05-06 11:31 36.89020 30.80862 352 ft 160 kts 187°
2026-05-06 11:32 36.87944 30.80700 1163 ft 158 kts 179°
2026-05-06 11:32 36.86866 30.80927 1919 ft 159 kts 171°
2026-05-06 11:32 36.85699 30.81152 2273 ft 185 kts 171°
2026-05-06 11:32 36.84336 30.81417 2590 ft 208 kts 171°
2026-05-06 11:33 36.82869 30.81699 3032 ft 218 kts 171°
2026-05-06 11:33 36.81350 30.81986 3600 ft 223 kts 172°
2026-05-06 11:33 36.79825 30.82295 4166 ft 227 kts 167°
2026-05-06 11:33 36.78301 30.83065 4435 ft 248 kts 153°
2026-05-06 11:34 36.76706 30.84091 4768 ft 268 kts 153°
2026-05-06 11:34 36.75060 30.85267 5355 ft 277 kts 139°
2026-05-06 11:34 36.73931 30.87205 6064 ft 278 kts 108°
2026-05-06 11:34 36.73525 30.89556 6858 ft 278 kts 94°
2026-05-06 11:35 36.73343 30.91979 7538 ft 283 kts 92°
2026-05-06 11:35 36.73179 30.94452 8206 ft 288 kts 93°
2026-05-06 11:35 36.73005 30.96948 9009 ft 288 kts 94°
2026-05-06 11:35 36.72817 30.99444 9766 ft 293 kts 93°
2026-05-06 11:36 36.72616 31.01999 10296 ft 303 kts 93°
2026-05-06 11:36 36.72398 31.04714 10462 ft 326 kts 94°
2026-05-06 11:36 36.72463 31.07599 10605 ft 344 kts 73°
2026-05-06 11:36 36.73525 31.10310 10766 ft 357 kts 48°
2026-05-06 11:37 36.75492 31.12214 11058 ft 364 kts 22°
2026-05-06 11:37 36.77961 31.12945 11624 ft 366 kts
2026-05-06 11:37 36.80499 31.12900 12243 ft 367 kts 346°
2026-05-06 11:37 36.82835 31.11659 12977 ft 367 kts 327°
2026-05-06 11:38 36.84758 31.09530 13540 ft 375 kts 309°
2026-05-06 11:38 36.86118 31.06746 14159 ft 380 kts 293°
2026-05-06 11:38 36.86732 31.03527 14805 ft 384 kts 279°
2026-05-06 11:38 36.87016 31.00203 15456 ft 388 kts 272°
2026-05-06 11:39 36.86566 30.96905 16035 ft 397 kts 252°
2026-05-06 11:39 36.85344 30.93975 16634 ft 404 kts 236°
2026-05-06 11:39 36.83438 30.91359 17273 ft 410 kts 227°
2026-05-06 11:39 36.81398 30.88836 17826 ft 415 kts 227°
2026-05-06 11:40 36.79355 30.86274 18393 ft 418 kts 228°
2026-05-06 11:40 36.77316 30.83670 18912 ft 420 kts 229°
2026-05-06 11:40 36.75276 30.81042 19438 ft 423 kts 229°
2026-05-06 11:40 36.73480 30.78166 19903 ft 421 kts 246°
2026-05-06 11:41 36.72570 30.74733 20422 ft 417 kts 262°
2026-05-06 11:41 36.72433 30.71155 20954 ft 414 kts 277°
2026-05-06 11:41 36.72691 30.67574 21441 ft 417 kts 273°
2026-05-06 11:41 36.72642 30.63939 21897 ft 421 kts 270°
2026-05-06 11:42 36.72538 30.60283 22349 ft 424 kts 271°
2026-05-06 11:42 36.72486 30.56601 22818 ft 425 kts 272°
2026-05-06 11:42 36.72482 30.52914 23340 ft 425 kts 274°
2026-05-06 11:42 36.72658 30.49239 23803 ft 425 kts 277°
2026-05-06 11:43 36.72944 30.45571 24203 ft 426 kts 278°
2026-05-06 11:43 36.73287 30.41887 24563 ft 429 kts 279°
2026-05-06 11:43 36.73640 30.38189 24883 ft 430 kts 279°
2026-05-06 11:44 36.74188 30.32024 25598 ft 431 kts 279°
2026-05-06 11:44 36.74503 30.28301 25911 ft 433 kts 279°
2026-05-06 11:44 36.74815 30.24552 26236 ft 435 kts 279°
2026-05-06 11:44 36.75132 30.20788 26565 ft 437 kts 280°
2026-05-06 11:45 36.75830 30.17135 26884 ft 434 kts 294°
2026-05-06 11:45 36.77214 30.13803 27270 ft 432 kts 300°
2026-05-06 11:45 36.78679 30.10542 27762 ft 429 kts 300°
2026-05-06 11:45 36.80105 30.07282 28362 ft 425 kts 300°
2026-05-06 11:46 36.81494 30.04034 28839 ft 424 kts 299°
2026-05-06 11:46 36.82917 30.00814 29229 ft 423 kts 304°
2026-05-06 11:46 36.84830 29.98048 29615 ft 422 kts 318°
2026-05-06 11:46 36.87074 29.95698 30122 ft 420 kts 319°
2026-05-06 11:47 36.89316 29.93368 30481 ft 419 kts 319°
2026-05-06 11:47 36.91548 29.91019 30791 ft 420 kts 319°
2026-05-06 11:47 36.93771 29.88648 31087 ft 421 kts 319°
2026-05-06 11:47 36.95990 29.86264 31403 ft 421 kts 319°
2026-05-06 11:48 36.98209 29.83880 31733 ft 420 kts 319°
2026-05-06 11:48 37.00433 29.81516 31979 ft 419 kts 319°
2026-05-06 11:48 37.04887 29.76800 31993 ft 419 kts 319°
2026-05-06 11:49 37.09333 29.72079 32006 ft 420 kts 319°
2026-05-06 11:49 37.13756 29.67370 31997 ft 420 kts 319°
2026-05-06 11:50 37.17438 29.61766 32005 ft 421 kts 296°
2026-05-06 11:50 37.19125 29.54708 32002 ft 424 kts 286°
2026-05-06 11:51 37.20545 29.47525 31998 ft 424 kts 287°
2026-05-06 11:51 37.22038 29.40374 31998 ft 424 kts 288°
2026-05-06 11:52 37.23520 29.33215 32001 ft 424 kts 287°
2026-05-06 11:52 37.24985 29.26056 31986 ft 423 kts 287°
2026-05-06 11:53 37.26446 29.18916 31986 ft 422 kts 287°
2026-05-06 11:53 37.27904 29.11800 31998 ft 420 kts 287°
2026-05-06 11:54 37.29355 29.04692 32000 ft 420 kts 287°
2026-05-06 11:54 37.30803 28.97571 31989 ft 421 kts 287°
2026-05-06 11:55 37.32245 28.90454 31990 ft 420 kts 288°
2026-05-06 11:55 37.33681 28.83341 32001 ft 420 kts 288°
2026-05-06 11:56 37.35113 28.76232 31997 ft 420 kts 288°
2026-05-06 11:56 37.36557 28.69116 32003 ft 420 kts 288°
2026-05-06 11:57 37.38008 28.62134 31986 ft 398 kts 288°
2026-05-06 11:57 37.38683 28.58874 31977 ft 384 kts 288°
2026-05-06 11:57 37.39342 28.55688 31977 ft 370 kts 288°
2026-05-06 11:58 37.39977 28.52616 31986 ft 357 kts 289°
2026-05-06 11:58 37.40590 28.49647 31973 ft 344 kts 289°
2026-05-06 11:58 37.41179 28.46788 31984 ft 332 kts 289°
2026-05-06 11:58 37.41747 28.44026 31977 ft 320 kts 289°
2026-05-06 11:59 37.42294 28.41369 31973 ft 307 kts 289°
2026-05-06 11:59 37.42821 28.38799 31986 ft 304 kts 290°
2026-05-06 11:59 37.43915 28.33520 32007 ft 321 kts 289°
2026-05-06 12:00 37.45054 28.27980 31988 ft 329 kts 289°
2026-05-06 12:00 37.46171 28.22478 31981 ft 321 kts 289°
2026-05-06 12:01 37.47275 28.17045 32000 ft 321 kts 289°
2026-05-06 12:01 37.48383 28.11583 31998 ft 322 kts 289°
2026-05-06 12:02 37.49492 28.06107 31970 ft 323 kts 289°
2026-05-06 12:02 37.50600 28.00612 31977 ft 324 kts 289°
2026-05-06 12:03 37.51716 27.95075 31381 ft 331 kts 289°
2026-05-06 12:03 37.52282 27.92256 30928 ft 333 kts 289°
2026-05-06 12:03 37.52853 27.89412 30441 ft 336 kts 289°
2026-05-06 12:04 37.53426 27.86552 29932 ft 338 kts 289°
2026-05-06 12:04 37.54002 27.83673 29163 ft 344 kts 289°
2026-05-06 12:04 37.54607 27.80664 27744 ft 366 kts 288°
2026-05-06 12:04 37.55230 27.77538 27288 ft 365 kts 288°
2026-05-06 12:05 37.55848 27.74423 26730 ft 365 kts 288°
2026-05-06 12:05 37.56462 27.71319 26237 ft 367 kts 288°
2026-05-06 12:05 37.57093 27.68145 25770 ft 381 kts 287°
2026-05-06 12:05 37.57758 27.64811 25250 ft 403 kts 287°
2026-05-06 12:06 37.58441 27.61362 24685 ft 405 kts 287°
2026-05-06 12:06 37.59117 27.57926 24134 ft 402 kts 287°
2026-05-06 12:06 37.59790 27.54494 23415 ft 403 kts 287°
2026-05-06 12:06 37.60461 27.51073 22784 ft 400 kts 287°
2026-05-06 12:07 37.61114 27.47735 22237 ft 395 kts 287°
2026-05-06 12:07 37.61769 27.44391 21727 ft 390 kts 287°
2026-05-06 12:07 37.62745 27.41204 21186 ft 382 kts 304°
2026-05-06 12:07 37.64369 27.38662 20705 ft 375 kts 316°
2026-05-06 12:08 37.66429 27.36664 20142 ft 373 kts 330°
2026-05-06 12:08 37.68774 27.35285 19658 ft 371 kts 336°
2026-05-06 12:08 37.71156 27.34059 19162 ft 369 kts 337°
2026-05-06 12:08 37.73524 27.32818 18660 ft 368 kts 336°
2026-05-06 12:09 37.75866 27.31548 18137 ft 365 kts 334°
2026-05-06 12:09 37.77968 27.29789 17566 ft 363 kts 318°
2026-05-06 12:09 37.79794 27.27610 17078 ft 359 kts 317°
2026-05-06 12:09 37.81601 27.25438 16571 ft 357 kts 317°
2026-05-06 12:10 37.83392 27.23296 16109 ft 353 kts 317°
2026-05-06 12:10 37.85172 27.21178 15680 ft 349 kts 317°
2026-05-06 12:10 37.86934 27.19091 15233 ft 346 kts 317°
2026-05-06 12:10 37.88684 27.17023 14781 ft 343 kts 318°
2026-05-06 12:11 37.90423 27.14970 14332 ft 341 kts 318°
2026-05-06 12:11 37.92152 27.12929 13877 ft 339 kts 318°
2026-05-06 12:11 37.93870 27.10902 13377 ft 337 kts 318°
2026-05-06 12:11 37.95579 27.08881 12900 ft 335 kts 318°
2026-05-06 12:12 37.97277 27.06875 12429 ft 333 kts 318°
2026-05-06 12:12 37.98962 27.04882 11977 ft 331 kts 318°
2026-05-06 12:12 38.00639 27.02897 11529 ft 329 kts 318°
2026-05-06 12:12 38.02303 27.00925 11085 ft 327 kts 318°
2026-05-06 12:13 38.03969 26.99001 10888 ft 317 kts 323°
2026-05-06 12:13 38.05877 26.97722 10731 ft 307 kts 342°
2026-05-06 12:13 38.07921 26.97028 10606 ft 302 kts 347°
2026-05-06 12:13 38.09958 26.96451 10428 ft 296 kts 347°
2026-05-06 12:14 38.11944 26.95882 10286 ft 288 kts 347°
2026-05-06 12:14 38.13878 26.95311 10161 ft 281 kts 347°
2026-05-06 12:14 38.15782 26.94963 10017 ft 275 kts
2026-05-06 12:14 38.17582 26.95601 9750 ft 274 kts 26°
2026-05-06 12:15 38.19069 26.97100 9476 ft 275 kts 46°
2026-05-06 12:15 38.20076 26.99155 9320 ft 274 kts 66°
2026-05-06 12:15 38.20584 27.01468 9210 ft 268 kts 73°
2026-05-06 12:15 38.20841 27.03793 9064 ft 267 kts 92°
2026-05-06 12:16 38.20258 27.06014 8930 ft 269 kts 119°
2026-05-06 12:16 38.18912 27.07708 8498 ft 279 kts 148°
2026-05-06 12:16 38.17081 27.08586 8055 ft 286 kts 166°
2026-05-06 12:16 38.15118 27.09146 7576 ft 293 kts 167°
2026-05-06 12:17 38.13110 27.09711 7063 ft 297 kts 167°
2026-05-06 12:17 38.11096 27.10297 6548 ft 298 kts 166°
2026-05-06 12:17 38.09075 27.10897 6012 ft 298 kts 167°
2026-05-06 12:17 38.07124 27.11753 5476 ft 297 kts 147°
2026-05-06 12:18 38.05682 27.13546 4996 ft 289 kts 118°
2026-05-06 12:18 38.05015 27.15873 4693 ft 276 kts 96°
2026-05-06 12:18 38.05032 27.18243 4345 ft 264 kts 75°
2026-05-06 12:18 38.05821 27.20244 4032 ft 251 kts 41°
2026-05-06 12:19 38.07293 27.21176 3887 ft 231 kts
2026-05-06 12:19 38.08888 27.21308 3536 ft 227 kts 357°
2026-05-06 12:19 38.10423 27.21158 3343 ft 218 kts 353°
2026-05-06 12:19 38.11906 27.20895 3079 ft 211 kts 349°
2026-05-06 12:20 38.13311 27.20515 2862 ft 203 kts 346°
2026-05-06 12:20 38.14663 27.20106 2693 ft 195 kts 345°
2026-05-06 12:20 38.15958 27.19713 2493 ft 189 kts 345°
2026-05-06 12:20 38.17194 27.19338 2320 ft 182 kts 345°
2026-05-06 12:21 38.18402 27.18973 2133 ft 176 kts 345°
2026-05-06 12:21 38.19602 27.18609 2046 ft 181 kts 345°
2026-05-06 12:21 38.20831 27.18237 1792 ft 178 kts 345°
2026-05-06 12:21 38.22009 27.17882 1549 ft 170 kts 344°
2026-05-06 12:22 38.23142 27.17539 1363 ft 167 kts 345°
2026-05-06 12:22 38.24269 27.17206 1161 ft 165 kts 347°
2026-05-06 12:22 38.25347 27.16905 966 ft 150 kts 346°
2026-05-06 12:22 38.26271 27.16565 789 ft 128 kts 346°
2026-05-06 12:23 38.27121 27.16326 571 ft 126 kts 350°
2026-05-06 12:23 38.27988 27.16074 439 ft 131 kts 347°
2026-05-06 12:23 38.28816 27.15827 418 ft 102 kts 347°
2026-05-06 12:23 38.29308 27.15678 416 ft 49 kts 347°
2026-05-06 12:24 38.29554 27.15603 417 ft 27 kts 346°
2026-05-06 12:24 38.29726 27.15531 418 ft 25 kts 324°
2026-05-06 12:24 38.29835 27.15434 418 ft 13 kts 320°
2026-05-06 12:24 38.29898 27.15357 413 ft 12 kts 316°
2026-05-06 12:25 38.29960 27.15282 409 ft 12 kts 316°
2026-05-06 12:25 38.29984 27.15190 416 ft 12 kts 259°
2026-05-06 12:25 38.29963 27.15067 408 ft 15 kts 256°
2026-05-06 12:25 38.29924 27.14960 410 ft 13 kts 195°
2026-05-06 12:26 38.29839 27.14979 410 ft 12 kts 165°
2026-05-06 12:26 38.29758 27.15006 410 ft 5 kts 165°
2026-05-06 12:26 38.29737 27.15002 410 ft 4 kts 206°
2026-05-06 12:26 38.29716 27.14962 410 ft 7 kts 256°
2026-05-06 12:27 38.29710 27.14933 410 ft 0 kts 256°